This is the latest recevied weather packets stored in our database for station/object NY3Q. If no packets are shown the sender has not sent any weather packets the latest 10 day(s).
| Time | Temp. | Humidity | Pressure | Rain* | Wind** | Luminosity | Snow |
|---|---|---|---|---|---|---|---|
| 1777655341 | 28.33° C | 60% | 1011.9 hPa | 0 mm | - | 674 W/m² | - |
| 1777655038 | 27.78° C | 60% | 1011.9 hPa | 0 mm | - | 435 W/m² | - |
| 1777653524 | 28.33° C | 58% | 1012.2 hPa | 0 mm | - | 294 W/m² | - |
| 1777653221 | 27.78° C | 60% | 1012.2 hPa | 0 mm | - | 320 W/m² | - |
| 1777652918 | 27.78° C | 61% | 1012.1 hPa | 0 mm | - | 325 W/m² | - |
| 1777652614 | 27.78° C | 62% | 1012.1 hPa | 0 mm | - | 305 W/m² | - |
| 1777652311 | 27.22° C | 62% | 1012.4 hPa | 0 mm | - | 310 W/m² | - |
| 1777652008 | 27.78° C | 61% | 1012.2 hPa | 0 mm | - | 193 W/m² | - |
| 1777651705 | 27.78° C | 61% | 1012.4 hPa | 0 mm | - | 231 W/m² | - |
| 1777651401 | 27.78° C | 61% | 1012.4 hPa | 0 mm | - | 232 W/m² | - |
| 1777651099 | 28.33° C | 60% | 1012.6 hPa | 0 mm | - | 251 W/m² | - |
| 1777650795 | 27.78° C | 62% | 1012.5 hPa | 0 mm | - | 572 W/m² | - |
| 1777650189 | 28.33° C | 61% | 1012.6 hPa | 0 mm | - | 213 W/m² | - |
| 1777649887 | 27.78° C | 64% | 1012.6 hPa | 0 mm | - | 332 W/m² | - |
| 1777649584 | 27.78° C | 63% | 1012.5 hPa | 0 mm | - | 356 W/m² | - |
| 1777649280 | 27.78° C | 64% | 1012.3 hPa | 0 mm | - | 233 W/m² | - |
| 1777648977 | 27.78° C | 66% | 1012.4 hPa | 0 mm | - | 282 W/m² | - |
| 1777648675 | 27.78° C | 67% | 1012.5 hPa | 0 mm | - | 278 W/m² | - |
| 1777648370 | 27.78° C | 66% | 1012.7 hPa | 0 mm | - | 278 W/m² | - |
| 1777648067 | 27.78° C | 67% | 1012.8 hPa | 0 mm | - | 431 W/m² | - |
| 1777647763 | 28.33° C | 64% | 1012.6 hPa | 0 mm | - | 489 W/m² | - |
| 1777647459 | 28.33° C | 66% | 1012.7 hPa | 0 mm | - | 494 W/m² | - |
| 1777647158 | 27.78° C | 70% | 1012.7 hPa | 0 mm | - | 304 W/m² | - |
| 1777646550 | 27.78° C | 73% | 1012.2 hPa | 0 mm | - | 281 W/m² | - |
| 1777646246 | 27.22° C | 73% | 1012.6 hPa | 0 mm | - | 347 W/m² | - |
* Rain latest hour (hover to see other rain measurements)
** Current wind speed in m/s (hover to see current wind gust speed)